Regional Weather Roundup
Issued by NWS

Home | Current Version | Previous Version | Text Only | Print | Product List | Glossary On
Versions: 1 2 3 4 5 6 7 8 9 10 11 12 13 14 15 16 17 18 19 20 21 22 23 24 25 26 27 28 29 30 31 32 33 34 35 36 37 38 39 40 41 42 43 44 45 46 47 48 49 50
000
ASUS43 KLSX 210359
RWRMO

WEATHER SUMMARY FOR MISSOURI
NATIONAL WEATHER SERVICE SPRINGFIELD MO
1100 PM CDT MON APR 20 2015

NOTE: "FAIR" INDICATES FEW OR NO CLOUDS BELOW 12,000 FEET WITH NO
       SIGNIFICANT WEATHER AND/OR OBSTRUCTIONS TO VISIBILITY.
       CURRENT SKY AND/OR WEATHER CONDITIONS ARE NOT AVAILABLE FOR
       CHILLICOTHE AND FARMINGTON.

MOZ001>031-035>038-043-044-053-054-210500-
...NORTHERN AND WESTERN MISSOURI...

CITY           SKY/WX    TMP DP  RH WIND       PRES   REMARKS
KANSAS CTY INT PTCLDY    45  30  55 SW8       29.85S
KANSAS C DTWN  PTCLDY    52  28  39 W6        29.85S
LEE`S SUMMIT   CLEAR     47  30  51 SW7       29.86S
ST JOSEPH      PTCLDY    47  30  51 W10       29.84S
CHILLICOTHE      N/A     47  28  47 SW5       29.82S
KIRKSVILLE     CLEAR     45  26  47 SW7       29.78S

$$
MOZ066>068-077>081-088>096-101>105-210500-
...SOUTHWEST MISSOURI...

CITY           SKY/WX    TMP DP  RH WIND       PRES   REMARKS
SPRINGFIELD    CLEAR     42  32  67 SW8       29.92S
JOPLIN         CLEAR     45  36  70 S6        29.94S

$$
MOZ032>034-039>042-045>050-055>058-069>072-210500-
...CENTRAL MISSOURI...

CITY           SKY/WX    TMP DP  RH WIND       PRES   REMARKS
COLUMBIA       CLEAR     44  29  55 SW10      29.84F
JEFFERSON CITY CLEAR     50  27  40 SW8       29.86S
ROLLA          CLEAR     42  27  55 SW9       29.86S
SEDALIA        CLEAR     48  29  47 SW10      29.87S
OSAGE BEACH    CLEAR     48  23  37 SW5       29.88F

$$
MOZ051-052-059>065-210500-
...EAST CENTRAL MISSOURI...

CITY           SKY/WX    TMP DP  RH WIND       PRES   REMARKS
ST LOUIS INTL  CLEAR     49  31  49 SW8       29.84F
SPIRIT OF STL  CLEAR     45  31  58 SW5       29.84S
ST CHARLES     CLEAR     43  35  73 SW8       29.82F

$$
MOZ072>076-082>087-097>100-106>115-210500-
...SOUTH CENTRAL AND SOUTHEAST MISSOURI...

CITY           SKY/WX    TMP DP  RH WIND       PRES   REMARKS
CAPE GIRARDEAU PTCLDY    49  42  77 W3        29.90R
FARMINGTON     CLEAR     46  30  53 W3        29.92S
POPLAR BLUFF   CLEAR     53  31  42 W5        29.92R
WEST PLAINS    CLEAR     45  29  53 SW6       29.94S

$$


USA.gov is the U.S. government's official web portal to all federal, state and local government web resources and services.